�N����,����,�~����,�C��,���x,�C��,����,���ϕ���,�ő�u�ԕ���,�ő厞����,���˗�,�I�_���x,�n�����x,�ő啗���N��,DTYPE
"18/08/15","00:10",0.0,28.2,74.6,1006.7,53.4,0.5,2.1,116.0,0.00,23.3,28.1,"00:02:00",1
"18/08/15","00:20",0.0,28.2,74.6,1006.7,87.0,0.7,2.2,175.7,0.00,23.3,28.2,"00:13:52",1
"18/08/15","00:30",0.0,28.2,74.5,1006.7,65.9,0.7,1.8,189.0,0.00,23.3,27.9,"00:28:56",1
"18/08/15","00:40",0.0,28.1,75.3,1006.4,50.4,0.6,2.7,149.9,0.00,23.4,28.0,"00:38:16",1
"18/08/15","00:50",0.0,28.4,74.3,1006.4,98.8,0.8,2.4,129.0,0.00,23.4,27.9,"00:44:24",1
"18/08/15","01:00",0.0,28.4,74.3,1006.2,107.4,0.6,1.9,87.9,0.00,23.4,27.9,"00:50:08",1
"18/08/15","01:10",0.0,28.5,74.3,1006.4,105.9,0.8,2.0,107.6,0.00,23.5,27.8,"01:02:16",1
"18/08/15","01:20",0.0,28.5,74.4,1006.2,121.1,1.1,2.7,122.6,0.00,23.5,27.8,"01:13:04",1
"18/08/15","01:30",0.0,28.5,74.3,1006.4,110.7,1.0,2.0,132.8,0.00,23.5,27.6,"01:22:56",1
"18/08/15","01:40",0.0,28.6,74.2,1006.0,95.9,1.1,2.4,50.4,0.00,23.6,27.9,"01:31:44",1
"18/08/15","01:50",0.0,28.6,74.2,1006.0,108.1,0.7,2.2,126.4,0.00,23.6,27.9,"01:48:40",1
"18/08/15","02:00",0.0,28.6,74.5,1005.7,97.6,1.0,3.2,115.3,0.00,23.7,27.7,"01:59:52",1
"18/08/15","02:10",0.0,28.4,74.7,1005.7,102.6,0.8,2.1,133.3,0.00,23.5,27.7,"02:04:08",1
"18/08/15","02:20",0.0,28.4,75.3,1006.0,100.4,1.0,2.6,105.2,0.00,23.6,27.7,"02:18:24",1
"18/08/15","02:30",0.0,28.3,75.1,1005.7,99.9,0.7,1.9,96.2,0.00,23.5,27.9,"02:21:44",1
"18/08/15","02:40",0.0,28.2,75.6,1005.7,101.7,0.8,2.6,128.4,0.00,23.5,27.7,"02:39:20",1
"18/08/15","02:50",0.0,28.1,76.4,1005.5,99.3,0.7,2.0,108.1,0.00,23.6,27.8,"02:40:16",1
"18/08/15","03:00",0.0,27.9,76.9,1006.0,138.8,0.7,1.8,0.7,0.00,23.5,27.5,"02:54:40",1
"18/08/15","03:10",0.0,27.9,77.2,1006.2,143.1,0.7,2.4,130.7,0.00,23.6,27.7,"03:03:04",1
"18/08/15","03:20",0.0,27.9,77.1,1006.0,119.8,0.5,1.4,67.6,0.00,23.6,27.6,"03:17:36",1
"18/08/15","03:30",0.0,27.7,77.7,1006.0,120.7,0.5,2.1,136.9,0.00,23.5,27.6,"03:20:02",1
"18/08/15","03:40",0.0,27.7,77.7,1005.7,118.7,0.3,1.4,123.5,0.00,23.5,27.4,"03:30:24",1
"18/08/15","03:50",0.0,27.7,77.8,1005.7,97.0,0.6,1.8,129.6,0.00,23.5,27.5,"03:46:00",1
"18/08/15","04:00",0.0,27.7,78.0,1006.0,90.1,0.5,1.9,62.0,0.00,23.6,27.5,"03:56:08",1
"18/08/15","04:10",0.0,27.6,77.9,1005.7,5.5,0.6,1.6,47.2,0.00,23.4,27.5,"04:02:32",1
"18/08/15","04:20",0.0,27.1,79.0,1005.7,333.5,0.8,1.3,340.8,0.00,23.2,27.4,"04:18:56",1
"18/08/15","04:30",0.0,26.7,81.5,1006.0,334.7,1.0,1.4,338.9,0.00,23.3,27.3,"04:25:12",1
"18/08/15","04:40",0.0,26.6,82.6,1006.0,334.2,0.7,1.4,343.5,0.00,23.4,27.2,"04:38:48",1
"18/08/15","04:50",0.0,26.6,83.4,1006.0,334.7,1.1,1.4,338.2,0.00,23.6,27.2,"04:47:28",1
"18/08/15","05:00",0.0,26.7,83.1,1006.0,337.7,1.0,1.6,336.6,0.00,23.6,27.3,"04:52:56",1
"18/08/15","05:10",0.0,26.7,83.2,1006.0,308.1,0.3,1.0,325.1,0.00,23.7,27.3,"05:00:08",1
"18/08/15","05:20",0.0,26.8,83.4,1006.2,310.8,0.5,1.2,358.8,0.00,23.8,27.3,"05:10:08",1
"18/08/15","05:30",0.0,26.8,83.0,1006.0,316.9,0.3,0.9,350.3,0.00,23.7,27.1,"05:24:32",1
"18/08/15","05:40",0.0,27.4,81.2,1006.4,142.8,0.5,1.4,187.5,0.00,23.9,27.2,"05:32:48",1
"18/08/15","05:50",0.0,27.7,79.8,1006.2,133.0,0.5,1.1,122.6,0.00,23.9,27.4,"05:40:24",1
"18/08/15","06:00",0.0,27.8,79.2,1006.4,80.1,0.3,1.2,113.7,0.00,23.9,27.2,"05:52:16",1
"18/08/15","06:10",0.0,27.9,78.5,1006.7,187.0,0.2,1.2,53.6,0.00,23.9,27.2,"06:03:36",1
"18/08/15","06:20",0.0,28.0,78.7,1006.4,316.5,0.3,1.3,342.0,0.00,24.0,27.0,"06:10:02",1
"18/08/15","06:30",0.0,28.0,79.5,1006.4,346.8,0.7,1.8,339.0,0.01,24.2,27.3,"06:20:24",1
"18/08/15","06:40",0.0,28.3,80.0,1006.2,358.0,0.8,1.6,352.8,0.04,24.6,27.2,"06:32:48",1
"18/08/15","06:50",0.0,28.9,75.7,1006.2,26.8,0.6,1.7,44.9,0.04,24.2,27.3,"06:43:04",1
"18/08/15","07:00",0.0,28.8,75.1,1006.2,122.3,0.7,2.1,134.7,0.02,24.0,27.2,"06:55:12",1
"18/08/15","07:10",0.0,28.7,75.5,1006.2,109.8,0.6,1.8,104.4,0.02,24.0,27.4,"07:09:28",1
"18/08/15","07:20",0.0,28.6,75.6,1006.7,108.3,0.7,1.3,199.5,0.03,23.9,27.5,"07:19:12",1
"18/08/15","07:30",0.0,28.6,76.0,1006.0,122.8,0.8,1.9,138.3,0.03,24.0,27.5,"07:27:28",1
"18/08/15","07:40",0.0,28.9,75.4,1006.0,124.6,0.7,1.6,149.6,0.06,24.1,27.3,"07:32:48",1
"18/08/15","07:50",0.0,28.8,75.7,1006.2,130.4,0.8,1.9,171.5,0.07,24.1,27.6,"07:48:00",1
"18/08/15","08:00",0.0,28.3,78.9,1006.2,177.5,0.6,1.2,185.4,0.03,24.3,27.4,"07:52:08",1
"18/08/15","08:10",0.0,28.1,79.5,1006.2,140.1,0.8,1.9,117.0,0.04,24.3,27.4,"08:08:32",1
"18/08/15","08:20",0.0,28.3,79.0,1006.4,149.2,0.8,2.1,124.5,0.07,24.3,27.6,"08:18:56",1
"18/08/15","08:30",0.0,28.4,79.2,1006.4,191.8,1.5,2.6,194.8,0.08,24.5,27.4,"08:22:08",1
"18/08/15","08:40",0.0,28.4,78.6,1006.7,178.5,1.1,2.4,232.6,0.09,24.4,27.5,"08:38:16",1
"18/08/15","08:50",0.0,28.5,77.6,1006.7,175.0,0.8,2.0,165.4,0.08,24.2,27.6,"08:40:40",1
"18/08/15","09:00",0.0,28.4,77.3,1006.0,149.2,0.6,1.4,215.0,0.07,24.1,27.7,"08:50:56",1
"18/08/15","09:10",0.0,28.7,77.3,1006.2,192.0,0.8,1.8,203.1,0.09,24.4,27.9,"09:01:36",1
"18/08/15","09:20",0.0,28.9,76.4,1006.4,194.6,1.2,2.2,211.8,0.12,24.4,28.0,"09:16:56",1
"18/08/15","09:30",0.0,29.4,75.6,1006.4,200.1,1.1,2.2,220.1,0.14,24.7,28.0,"09:20:56",1
"18/08/15","09:40",0.0,29.6,76.0,1006.9,152.8,1.0,2.1,158.7,0.16,25.0,28.0,"09:31:04",1
"18/08/15","09:50",0.0,29.7,73.4,1006.9,184.4,1.3,2.6,221.9,0.18,24.5,28.2,"09:47:44",1
"18/08/15","10:00",0.0,29.9,71.9,1007.6,185.6,1.1,2.8,216.6,0.19,24.3,28.2,"09:56:00",1
"18/08/15","10:10",0.0,30.2,70.9,1007.6,194.5,0.7,2.1,228.7,0.24,24.4,28.4,"10:06:32",1
"18/08/15","10:20",0.0,30.3,70.1,1007.4,103.3,0.6,1.6,208.0,0.16,24.3,28.5,"10:19:12",1
"18/08/15","10:30",0.0,30.0,70.9,1007.1,192.4,1.1,3.4,214.2,0.11,24.2,28.6,"10:21:44",1
"18/08/15","10:40",0.0,30.2,70.6,1007.4,175.0,0.8,2.1,198.2,0.11,24.3,28.7,"10:37:04",1
"18/08/15","10:50",0.0,30.1,70.2,1007.4,175.7,1.3,2.5,225.5,0.08,24.1,28.6,"10:46:16",1
"18/08/15","11:00",0.0,30.0,69.7,1007.1,193.2,1.5,3.6,227.3,0.09,23.9,28.8,"10:58:32",1
"18/08/15","11:10",0.0,30.2,69.1,1007.1,206.8,2.0,3.7,213.7,0.15,23.9,28.8,"11:00:56",1
"18/08/15","11:20",0.0,30.2,70.9,1006.9,194.7,2.0,3.4,215.1,0.18,24.4,28.9,"11:18:08",1
"18/08/15","11:30",0.0,30.4,71.6,1006.9,200.8,2.1,5.0,227.6,0.18,24.7,28.9,"11:20:40",1
"18/08/15","11:40",0.0,29.8,72.8,1006.4,186.0,1.8,3.4,233.7,0.16,24.4,28.9,"11:34:24",1
"18/08/15","11:50",0.0,29.4,75.7,1006.4,182.9,1.7,3.7,225.9,0.15,24.7,29.0,"11:48:40",1
"18/08/15","12:00",0.0,29.0,77.3,1006.0,196.4,1.6,4.0,230.1,0.14,24.7,28.9,"11:56:16",1
"18/08/15","12:10",0.2,29.0,75.7,1006.0,205.5,1.6,4.0,199.1,0.14,24.3,28.7,"12:00:16",1
"18/08/15","12:20",0.0,29.3,75.7,1005.7,206.8,1.7,2.8,214.2,0.18,24.6,28.8,"12:12:24",1
"18/08/15","12:30",0.0,29.6,75.7,1006.0,194.3,1.1,3.3,193.5,0.19,24.9,29.0,"12:20:02",1
"18/08/15","12:40",0.0,29.2,76.9,1006.2,184.8,1.6,2.6,191.2,0.15,24.8,29.0,"12:37:52",1
"18/08/15","12:50",0.0,29.0,78.3,1006.2,187.6,1.6,3.7,209.2,0.11,24.9,28.9,"12:44:32",1
"18/08/15","13:00",0.0,29.0,78.8,1005.7,174.7,1.6,3.7,204.6,0.10,25.0,28.9,"12:50:32",1
"18/08/15","13:10",0.0,28.8,79.4,1005.5,190.7,1.8,3.6,221.1,0.09,24.9,29.0,"13:04:08",1
"18/08/15","13:20",0.0,29.3,76.4,1005.5,194.5,1.6,2.7,200.7,0.21,24.8,28.8,"13:17:20",1
"18/08/15","13:30",0.0,30.1,72.7,1005.7,103.3,0.8,2.2,134.6,0.23,24.7,29.2,"13:22:08",1
"18/08/15","13:40",0.0,29.9,72.7,1006.0,92.5,0.7,2.0,9.2,0.22,24.5,29.4,"13:30:16",1
"18/08/15","13:50",0.0,29.9,73.0,1006.0,148.4,0.7,2.0,116.6,0.23,24.6,29.2,"13:44:56",1
"18/08/15","14:00",0.0,29.9,71.7,1006.0,165.0,0.8,2.2,227.5,0.19,24.3,29.2,"13:59:44",1
"18/08/15","14:10",0.0,30.1,71.8,1006.0,157.9,0.8,1.8,220.2,0.17,24.5,29.4,"14:00:24",1
"18/08/15","14:20",0.0,30.3,71.1,1006.2,158.1,1.1,2.9,204.3,0.19,24.5,29.7,"14:15:04",1
"18/08/15","14:30",0.0,30.9,68.0,1006.0,176.5,1.3,3.6,222.8,0.24,24.3,29.7,"14:29:28",1
"18/08/15","14:40",0.0,30.9,67.7,1006.4,191.6,0.8,2.5,223.6,0.24,24.3,29.7,"14:34:48",1
"18/08/15","14:50",0.0,30.7,68.5,1006.4,154.3,0.6,1.7,218.7,0.15,24.3,29.8,"14:47:04",1
"18/08/15","15:00",0.0,30.9,68.1,1006.0,204.6,1.5,3.5,197.7,0.18,24.4,29.9,"14:54:48",1
"18/08/15","15:10",0.0,30.8,68.0,1006.4,208.6,0.8,2.7,222.6,0.14,24.2,29.9,"15:04:56",1
"18/08/15","15:20",0.0,31.0,67.4,1006.0,14.2,0.8,2.0,196.3,0.12,24.3,29.8,"15:10:24",1
"18/08/15","15:30",0.0,31.2,66.9,1006.0,10.3,0.7,1.6,355.6,0.12,24.4,30.0,"15:21:36",1
"18/08/15","15:40",0.0,31.1,68.0,1006.0,295.0,0.6,1.6,233.6,0.14,24.5,30.0,"15:34:32",1
"18/08/15","15:50",0.0,31.1,68.2,1005.7,329.4,0.8,2.4,345.1,0.13,24.6,29.9,"15:48:24",1
"18/08/15","16:00",0.0,31.0,67.8,1005.5,311.8,0.8,2.6,350.1,0.09,24.4,29.7,"15:53:36",1
"18/08/15","16:10",0.0,31.2,67.5,1005.5,218.2,0.6,2.2,222.9,0.10,24.5,30.0,"16:02:24",1
"18/08/15","16:20",0.0,31.5,67.1,1005.5,280.1,0.7,2.2,202.9,0.15,24.7,29.9,"16:10:32",1
"18/08/15","16:30",0.0,31.2,68.4,1005.2,336.4,1.1,3.3,338.3,0.15,24.7,29.9,"16:26:40",1
"18/08/15","16:40",0.0,31.0,69.1,1005.0,343.4,1.3,2.7,346.1,0.11,24.7,29.8,"16:37:36",1
"18/08/15","16:50",0.0,30.9,69.8,1004.5,324.5,1.0,2.0,343.0,0.08,24.8,30.0,"16:43:36",1
"18/08/15","17:00",0.0,31.3,68.2,1004.8,335.7,0.8,2.5,351.5,0.10,24.8,30.0,"16:55:12",1
"18/08/15","17:10",0.0,31.3,67.2,1005.0,329.3,0.8,2.7,356.6,0.08,24.5,29.9,"17:04:24",1
"18/08/15","17:20",0.0,31.2,65.5,1004.5,214.0,1.3,3.9,222.4,0.05,24.0,29.8,"17:18:00",1
"18/08/15","17:30",0.0,31.1,66.1,1004.3,257.5,0.8,3.1,331.7,0.04,24.1,29.7,"17:23:28",1
"18/08/15","17:40",0.0,30.9,66.4,1004.3,250.3,0.6,1.8,320.6,0.03,23.9,29.8,"17:33:12",1
"18/08/15","17:50",0.0,30.9,66.9,1004.3,266.6,0.6,1.9,228.7,0.03,24.1,29.7,"17:48:56",1
"18/08/15","18:00",0.0,30.7,67.2,1003.8,272.1,1.0,2.0,198.2,0.03,24.0,29.7,"17:54:00",1
"18/08/15","18:10",0.0,30.6,68.0,1004.1,273.5,0.6,1.7,350.2,0.02,24.1,29.7,"18:00:16",1
"18/08/15","18:20",0.0,30.5,68.5,1004.1,150.0,0.7,1.6,119.7,0.00,24.1,29.4,"18:12:32",1
"18/08/15","18:30",0.0,30.4,70.0,1004.1,174.9,1.5,4.4,123.2,0.00,24.4,29.5,"18:28:56",1
"18/08/15","18:40",0.0,29.4,75.1,1003.8,168.7,2.0,5.2,202.9,0.00,24.6,29.5,"18:30:16",1
"18/08/15","18:50",0.0,29.0,77.7,1003.8,161.0,1.6,4.2,180.9,0.00,24.7,29.4,"18:40:48",1
"18/08/15","19:00",0.0,28.7,79.5,1004.1,149.5,1.1,2.7,135.6,0.00,24.8,29.2,"18:55:12",1
"18/08/15","19:10",0.0,28.5,79.8,1004.5,159.4,1.0,1.8,194.8,0.00,24.7,29.0,"19:08:00",1
"18/08/15","19:20",0.0,28.3,80.7,1004.8,194.0,0.6,1.1,130.6,0.00,24.7,29.1,"19:13:28",1
"18/08/15","19:30",0.0,28.3,80.9,1004.8,214.2,1.0,1.9,235.1,0.00,24.7,29.0,"19:29:20",1
"18/08/15","19:40",0.0,28.4,80.6,1004.5,218.2,0.7,2.0,234.5,0.00,24.8,29.0,"19:34:00",1
"18/08/15","19:50",0.0,28.2,81.1,1004.8,204.0,0.7,1.9,236.5,0.00,24.7,28.8,"19:40:40",1
"18/08/15","20:00",0.0,28.1,81.9,1005.2,302.7,0.5,1.3,327.4,0.00,24.8,28.8,"19:54:00",1
"18/08/15","20:10",0.0,27.8,83.6,1005.0,331.3,0.8,1.6,338.3,0.00,24.8,28.5,"20:03:04",1
"18/08/15","20:20",0.0,27.4,85.3,1005.2,331.9,1.0,1.7,333.6,0.00,24.8,28.6,"20:13:12",1
"18/08/15","20:30",0.0,27.3,86.5,1005.7,325.4,0.7,1.1,339.5,0.00,24.9,28.4,"20:26:00",1
"18/08/15","20:40",0.0,27.2,87.3,1005.5,335.0,0.8,1.2,336.9,0.00,24.9,28.5,"20:34:48",1
"18/08/15","20:50",0.2,27.1,88.0,1005.7,340.4,0.8,1.4,339.6,0.00,25.0,28.4,"20:45:04",1
"18/08/15","21:00",0.0,26.9,89.0,1005.0,293.9,0.3,0.9,313.8,0.00,25.0,28.4,"20:53:44",1
"18/08/15","21:10",0.0,26.7,89.6,1005.5,336.6,0.8,1.7,347.4,0.00,24.9,28.4,"21:03:12",1
"18/08/15","21:20",0.0,26.5,90.1,1005.5,333.9,0.7,1.3,345.2,0.00,24.8,28.3,"21:10:24",1
"18/08/15","21:30",0.0,26.5,90.7,1005.0,296.7,0.5,0.6,301.3,0.00,24.9,28.2,"21:27:44",1
"18/08/15","21:40",0.0,26.4,91.0,1005.5,317.3,0.6,1.1,315.0,0.00,24.9,28.0,"21:37:28",1
"18/08/15","21:50",0.0,26.4,91.3,1005.2,337.5,0.8,1.3,338.9,0.00,24.9,28.1,"21:44:00",1
"18/08/15","22:00",0.0,26.3,91.4,1005.2,337.9,1.0,1.7,341.4,0.00,24.8,28.2,"21:51:04",1
"18/08/15","22:10",0.0,26.2,91.5,1005.0,290.8,0.5,0.8,336.7,0.00,24.7,27.9,"22:00:08",1
"18/08/15","22:20",0.0,26.1,91.8,1004.8,310.3,0.6,1.1,338.7,0.00,24.7,28.0,"22:18:40",1
"18/08/15","22:30",0.0,26.1,91.9,1005.0,335.6,0.6,1.3,343.2,0.00,24.7,28.0,"22:28:40",1
"18/08/15","22:40",0.0,26.1,92.0,1004.8,339.8,0.5,1.1,339.5,0.00,24.7,27.8,"22:31:04",1
"18/08/15","22:50",0.0,26.0,92.3,1004.8,298.5,0.5,0.9,319.5,0.00,24.7,28.0,"22:49:28",1
"18/08/15","23:00",0.0,26.0,92.4,1005.0,352.0,0.8,1.3,346.9,0.00,24.7,27.9,"22:53:04",1
"18/08/15","23:10",0.0,25.9,92.5,1004.8,344.7,1.0,1.9,344.7,0.00,24.6,27.8,"23:02:16",1
"18/08/15","23:20",0.0,25.9,92.8,1005.0,336.8,0.8,1.6,345.7,0.00,24.7,27.8,"23:10:32",1
"18/08/15","23:30",0.0,25.8,92.8,1004.5,297.5,0.5,1.1,330.3,0.00,24.6,27.6,"23:24:16",1
"18/08/15","23:40",0.0,25.8,93.0,1004.8,330.5,0.7,1.4,342.0,0.00,24.6,27.5,"23:38:56",1
"18/08/15","23:50",0.0,25.8,92.9,1004.8,324.0,0.6,1.2,349.6,0.00,24.6,27.5,"23:40:40",1
"18/08/15","24:00",0.0,25.8,93.2,1004.5,318.5,0.7,0.9,315.4,0.00,24.7,27.7,"23:52:48",1
